[[{"header":{"parameterUnit":"m.s-1","parameterCategory":2,"la1":30.2991,"la2":30.254,"lo1":-89.0895,"lo2":-89.0444,"dy":0.0017,"dx":0.0017,"nx":28,"ny":28,"refTime":"2024-04-02T21:00:00:Z","depth":"0","parameterNumber":2,"parameterNumberName":"U-component_of_CURRENTS"},"data":[0,0,0,0,0,0,0,0,0,0,0,0,0,0,0,0,0,0,0,0,0,0,0,0,0,0,0,0,0,0,0,0,0,0,0,0,0,0,0,0,0,0,0,0,0,0,0,0,0,0,0,0,0,0,0,0,0,0,0.1193,0.1193,0,0.1227,0.1227,0.1227,0.1243,0.1243,0.1243,0.1243,0.1257,0.1257,0.1258,0,0,0,0,0,0,0,0,0,0,0,0,0,0.1137,0.1138,0.1193,0.1193,0.1194,0.1227,0.1227,0.1228,0.1243,0.1243,0.1243,0.1243,0.1257,0.1257,0.1258,0,0,0,0,0,0,0,0,0,0,0,0,0,0.1164,0.1138,0.1193,0.1206,0.1208,0.1227,0.1227,0.1228,0.1243,0.1243,0.1243,0.1243,0.1257,0.1257,0.1258,0.1259,0,0,0.1259,0.1259,0,0,0,0,0,0,0,0,0.1163,0.1166,0.1204,0.1205,0.1207,0.1232,0.1213,0.1237,0.1243,0.1228,0.1243,0.1243,0.1247,0.1249,0.1253,0.1259,0.126,0.1259,0.1259,0.126,0.126,0,0,0,0,0,0,0,0.1161,0.1165,0.1205,0.1204,0.1206,0.121,0.1213,0.1218,0.1236,0.123,0.1231,0.1237,0.1248,0.1253,0.1254,0.126,0.1259,0.126,0.126,0.126,0.129,0.1291,0,0,0,0,0,0,0.1159,0.1163,0.1204,0.1206,0.1186,0.1211,0.1215,0.1223,0.1236,0.1239,0.1237,0.1237,0.1252,0.1253,0.1254,0.1275,0.126,0.126,0.126,0.129,0.129,0.1291,0,0,0,0,0,0,0.1158,0.1163,0.1203,0.1186,0.1192,0.1212,0.122,0.1223,0.1233,0.1242,0.1244,0.1243,0.1252,0.1254,0.1266,0.1275,0.126,0.1261,0.1289,0.129,0.129,0.1304,0,0,0,0,0,0,0.1156,0.1162,0.1168,0.1186,0.1192,0.122,0.122,0.1224,0.1237,0.1238,0.1248,0.125,0.1252,0.1265,0.1267,0.1275,0.1261,0.1288,0.1289,0.129,0.1303,0.1305,0.1307,0,0,0,0,0,0.1154,0.1163,0.1168,0.1173,0.12,0.1221,0.1225,0.1238,0.1237,0.1245,0.1252,0.1249,0.1272,0.1266,0.1267,0.1277,0.1288,0.1289,0.129,0.1302,0.1305,0.1307,0,0,0,0,0,0,0.1144,0.1166,0.1172,0.1188,0.1205,0.1224,0.1234,0.1239,0.1251,0.1252,0.1255,0.1257,0.1273,0.1272,0.1266,0.1289,0.128,0.1281,0.1289,0.1291,0.1293,0.1306,0.1262,0,0,0,0,0,0.1144,0.1156,0.1178,0.1191,0.12,0.1216,0.1225,0.1235,0.1248,0.1253,0.1259,0.1267,0.1278,0.1283,0.1291,0.1301,0.1342,0.1309,0.1311,0.1312,0.1324,0.1378,0.1386,0.1295,0.1294,0.1294,0,0,0.1142,0.1158,0.1164,0.1189,0.1203,0.122,0.1222,0.124,0.1253,0.1252,0.1268,0.1274,0.1282,0.1298,0.1304,0.1299,0.1368,0.1314,0.1315,0.1326,0.138,0.1389,0.1397,0.1295,0.1295,0.1295,0,0,0.1148,0.1161,0.1174,0.1189,0.1213,0.1225,0.123,0.125,0.1259,0.1276,0.1279,0.1294,0.1304,0.1317,0.1323,0.1342,0.1377,0.134,0.136,0.1412,0.142,0.1428,0.1527,0.1543,0.134,0.134,0.134,0,0.1144,0.1168,0.1181,0.1199,0.1215,0.1227,0.1246,0.1256,0.1277,0.1291,0.1283,0.1316,0.1316,0.1345,0.1351,0.1347,0.1399,0.1348,0.1416,0.1424,0.1432,0.1531,0.1549,0.1341,0.1341,0.134,0.134,0,0.1163,0.1182,0.1192,0.1219,0.1235,0.1255,0.1272,0.1288,0.1296,0.131,0.1339,0.1344,0.1371,0.1365,0.1363,0.1413,0.1444,0.1413,0.1411,0.1442,0.1545,0.1563,0.1342,0.1342,0.1341,0.1341,0,0,0.1157,0.1197,0.1201,0.1221,0.1249,0.1268,0.1289,0.1321,0.1349,0.1356,0.1403,0.1402,0.1414,0.1423,0.1422,0.1454,0.1557,0.1458,0.146,0.1561,0.1719,0.1789,0.1817,0.1538,0.154,0.1542,0.1782,0,0.117,0.1205,0.1223,0.1259,0.1281,0.1302,0.1326,0.1354,0.1378,0.1424,0.1434,0.1477,0.1433,0.1462,0.1483,0.1547,0.16,0.1497,0.167,0.1676,0.1737,0.1837,0.1822,0.2038,0.1801,0.1804,0.1806,0,0.1185,0.121,0.1244,0.1292,0.1305,0.1327,0.1381,0.1405,0.1461,0.1488,0.1523,0.1546,0.1612,0.1563,0.1686,0.1627,0.1679,0.1713,0.1723,0.1795,0.178,0.1961,0.2081,0.2068,0.1834,0.1832,0.183,0,0.1182,0.1227,0.1257,0.1272,0.1322,0.1347,0.1376,0.1424,0.1466,0.1546,0.1606,0.1658,0.1731,0.1775,0.1854,0.1786,0.2007,0.1923,0.2038,0.2045,0.2071,0.2077,0.2199,0.2012,0.2012,0.2011,0.201,0,0.1192,0.1217,0.126,0.1278,0.1321,0.1356,0.1411,0.1448,0.1531,0.1601,0.1644,0.1734,0.1786,0.1907,0.1931,0.2086,0.2082,0.2089,0.2118,0.208,0.2083,0.2101,0.205,0.202,0.2018,0.2016,0.2015,0,0.1182,0.1211,0.1246,0.13,0.1319,0.1348,0.143,0.1475,0.1561,0.1666,0.171,0.1849,0.2021,0.2096,0.2228,0.223,0.2303,0.2379,0.2363,0.2385,0.2439,0.2388,0.2402,0.2331,0.255,0.2554,0.2557,0,0.1179,0.1197,0.1248,0.127,0.1295,0.1347,0.1384,0.1472,0.1536,0.1733,0.1797,0.2011,0.2154,0.2418,0.2486,0.2619,0.2468,0.2658,0.2499,0.2493,0.2459,0.2262,0.2183,0.256,0.2563,0.2565,0.2566,0,0.1171,0.1188,0.1216,0.1256,0.1295,0.1343,0.1415,0.1474,0.1598,0.1724,0.1926,0.2073,0.2357,0.2524,0.2715,0.2751,0.2557,0.2706,0.269,0.2492,0.2294,0.2223,0.2379,0.2585,0.2583,0.2582,0.2581,0.258,0.1158,0.1171,0.1206,0.1244,0.1284,0.1337,0.1375,0.1478,0.1604,0.1793,0.1957,0.2179,0.2477,0.2756,0.2784,0.2871,0.2715,0.2814,0.2769,0.2582,0.2454,0.2687,0.2914,0.2914,0.2914,0.2914,0.2914,0,0.1139,0.1164,0.1196,0.1242,0.1273,0.1306,0.1395,0.1445,0.1577,0.1799,0.1986,0.2344,0.2575,0.2765,0.2986,0.2954,0.2719,0.2895,0.2603,0.2529,0.2775,0.2718,0.2923,0.2923,0.2923,0.2923,0.2923,0.2923,0.1135,0.1156,0.1178,0.122,0.1252,0.1289,0.133,0.1417,0.1568,0.1831,0.2062,0.2257,0.2659,0.2984,0.3073,0.2994,0.2737,0.2659,0.2576,0.277,0.2756,0.2743,0.2679,0.2872,0.2872,0.2226,0.2222,0.2219]},{"header":{"parameterUnit":"m.s-1","parameterCategory":2,"la1":30.2991,"la2":30.254,"lo1":-89.0895,"lo2":-89.0444,"dy":0.0017,"dx":0.0017,"nx":28,"ny":28,"refTime":"2024-04-02T21:00:00:Z","depth":"0","parameterNumber":3,"parameterNumberName":"V-component_of_CURRENTS"},"data":[0,0,0,0,0,0,0,0,0,0,0,0,0,0,0,0,0,0,0,0,0,0,0,0,0,0,0,0,0,0,0,0,0,0,0,0,0,0,0,0,0,0,0,0,0,0,0,0,0,0,0,0,0,0,0,0,0,0,0.0022,0.0021,0,-0.0027,-0.0027,-0.0028,-0.0057,-0.0057,-0.0057,-0.0057,-0.0123,-0.0125,-0.0126,0,0,0,0,0,0,0,0,0,0,0,0,0,0.0068,0.0067,0.0022,0.0021,0.0021,-0.0027,-0.0027,-0.0028,-0.0057,-0.0057,-0.0057,-0.0057,-0.0123,-0.0124,-0.0126,0,0,0,0,0,0,0,0,0,0,0,0,0,0.0036,0.0067,0.0022,0.0001,-0.0002,-0.0027,-0.0027,-0.0028,-0.0057,-0.0057,-0.0057,-0.0058,-0.0122,-0.0124,-0.0127,-0.0138,0,0,-0.0134,-0.0135,0,0,0,0,0,0,0,0,0.0038,0.0035,0.0004,0.0002,-0.0001,-0.0036,-0.0035,-0.0066,-0.0057,-0.0036,-0.0057,-0.0058,-0.0095,-0.01,-0.0109,-0.0141,-0.0144,-0.0134,-0.0136,-0.0137,-0.0138,0,0,0,0,0,0,0,0.0041,0.0037,0.0002,0.0004,0.0001,-0.0014,-0.0018,-0.0041,-0.0065,-0.0038,-0.004,-0.0045,-0.0097,-0.0106,-0.011,-0.0145,-0.0134,-0.0136,-0.0138,-0.0139,-0.0202,-0.0202,0,0,0,0,0,0,0.0048,0.0039,0.0004,0.0001,0.0019,-0.0015,-0.002,-0.0025,-0.0064,-0.007,-0.0045,-0.0047,-0.0102,-0.0108,-0.0113,-0.0138,-0.0137,-0.0139,-0.0141,-0.0202,-0.0202,-0.0203,0,0,0,0,0,0,0.0049,0.0045,0.0006,0.0019,0.0013,-0.0015,-0.002,-0.0025,-0.0036,-0.0069,-0.0076,-0.0051,-0.0102,-0.0109,-0.0137,-0.014,-0.014,-0.0143,-0.0202,-0.0202,-0.0202,-0.0182,0,0,0,0,0,0,0.0051,0.0046,0.0044,0.0019,0.0012,-0.0007,-0.002,-0.0026,-0.0039,-0.0041,-0.0076,-0.0082,-0.0103,-0.0133,-0.0139,-0.0144,-0.0144,-0.0202,-0.0202,-0.0202,-0.0183,-0.0182,-0.0181,0,0,0,0,0,0.0053,0.0052,0.0044,0.0039,0.001,-0.0007,-0.0012,-0.0032,-0.0039,-0.0043,-0.0069,-0.0081,-0.014,-0.0135,-0.0142,-0.0148,-0.0201,-0.0202,-0.0202,-0.0183,-0.0182,-0.0181,0,0,0,0,0,0,0.0071,0.0048,0.0039,0.0031,0.0014,-0.0012,-0.0018,-0.003,-0.0053,-0.0056,-0.0086,-0.0094,-0.012,-0.0136,-0.013,-0.0167,-0.0172,-0.0174,-0.0155,-0.0154,-0.0153,-0.015,-0.0146,0,0,0,0,0,0.0074,0.0067,0.0044,0.0037,0.0031,0.0007,-0.0003,-0.0016,-0.0038,-0.0049,-0.0073,-0.0101,-0.0128,-0.0142,-0.0167,-0.0187,-0.0191,-0.0194,-0.0193,-0.0193,-0.0195,-0.0204,-0.0204,-0.0204,-0.0204,-0.0204,0,0,0.0079,0.0066,0.0061,0.0041,0.0026,0.0016,0.0001,-0.0012,-0.0023,-0.0052,-0.0076,-0.01,-0.0133,-0.0158,-0.017,-0.0171,-0.0192,-0.0193,-0.0192,-0.0195,-0.0205,-0.0205,-0.0205,-0.0204,-0.0204,-0.0204,0,0,0.0087,0.0074,0.0072,0.0059,0.004,0.0024,0.0022,-0.0003,-0.0017,-0.0042,-0.0067,-0.0095,-0.0131,-0.0158,-0.0176,-0.0186,-0.0189,-0.0189,-0.0182,-0.0191,-0.0191,-0.0191,-0.0182,-0.0181,-0.0187,-0.0187,-0.0187,0,0.0095,0.0088,0.0068,0.0064,0.0054,0.0029,0.0026,0.0006,-0.0025,-0.0037,-0.0046,-0.0103,-0.0134,-0.0165,-0.0174,-0.0185,-0.018,-0.0182,-0.019,-0.019,-0.019,-0.0181,-0.018,-0.0186,-0.0186,-0.0186,-0.0187,0,0.0101,0.0095,0.0094,0.0078,0.0065,0.0059,0.0031,0.0016,-0.0003,-0.0024,-0.0056,-0.0096,-0.0127,-0.0143,-0.0166,-0.0185,-0.0176,-0.0187,-0.0189,-0.0189,-0.0179,-0.0179,-0.0185,-0.0185,-0.0186,-0.0186,0,0,0.0121,0.0103,0.0102,0.0102,0.0073,0.0069,0.0045,0.0021,0.0021,-0.0023,-0.0024,-0.0093,-0.0107,-0.0129,-0.0156,-0.0173,-0.0176,-0.0179,-0.018,-0.0165,-0.0176,-0.0174,-0.0173,-0.0182,-0.0182,-0.0182,-0.0162,0,0.0134,0.0136,0.0116,0.0116,0.0117,0.0086,0.0071,0.0045,0.0027,0.0021,-0.0031,-0.004,-0.0103,-0.0099,-0.0137,-0.0157,-0.0177,-0.018,-0.0183,-0.0183,-0.0178,-0.0174,-0.0187,-0.0171,-0.0162,-0.0162,-0.0162,0,0.0147,0.0149,0.0153,0.0146,0.0144,0.0136,0.0123,0.0112,0.0085,0.0076,0.0044,0.002,-0.0021,-0.0058,-0.0121,-0.0114,-0.015,-0.0173,-0.0173,-0.0181,-0.0182,-0.0173,-0.0171,-0.0312,-0.0162,-0.0162,-0.0162,0,0.0181,0.0175,0.0183,0.0179,0.0164,0.0159,0.0151,0.0128,0.0147,0.013,0.0162,0.0085,0.0099,0.0014,-0.0053,-0.0078,-0.0098,-0.0135,-0.0172,-0.0171,-0.019,-0.019,-0.0323,-0.0182,-0.0182,-0.0182,-0.0182,0,0.0205,0.0213,0.0203,0.021,0.0228,0.0202,0.0225,0.021,0.0229,0.0279,0.0206,0.0252,0.0122,0.0093,-0.0011,-0.0079,-0.0068,-0.0169,-0.017,-0.0182,-0.0182,-0.0312,-0.0403,-0.0181,-0.0182,-0.0182,-0.0182,0,0.024,0.023,0.0247,0.0243,0.0246,0.0263,0.0293,0.0324,0.0333,0.0408,0.0421,0.0402,0.0363,0.0234,0.0134,0.0015,-0.0156,-0.0102,-0.0098,-0.01,-0.0294,-0.0383,-0.0501,-0.0571,-0.0152,-0.0152,-0.0152,0,0.0259,0.0269,0.0283,0.0308,0.0309,0.0334,0.0362,0.0373,0.0432,0.0513,0.0574,0.0567,0.0582,0.0427,0.0208,0.003,-0.0118,-0.0098,-0.0173,-0.0307,-0.0407,-0.0463,-0.0518,-0.0181,-0.0181,-0.0181,-0.0181,0,0.0299,0.03,0.0321,0.0374,0.0408,0.0456,0.051,0.0579,0.0624,0.0709,0.083,0.0856,0.0701,0.0528,0.0269,0.0118,-0.0221,-0.0106,-0.0255,-0.0453,-0.0514,-0.0578,-0.0179,-0.0182,-0.0182,-0.0182,-0.0182,-0.0182,0.0335,0.0363,0.0396,0.0449,0.0498,0.0591,0.0666,0.0754,0.0879,0.1043,0.1029,0.112,0.0824,0.0469,0.0223,-0.0214,-0.0221,-0.0352,-0.0447,-0.0488,-0.0577,-0.017,-0.0173,-0.0173,-0.0173,-0.0173,-0.0173,0,0.0387,0.0422,0.0475,0.0552,0.0635,0.0645,0.0779,0.089,0.1071,0.1206,0.1314,0.1256,0.0849,0.0442,-0.015,-0.0481,-0.0626,-0.0668,-0.0777,-0.0816,-0.0459,-0.0484,-0.0543,-0.0543,-0.0542,-0.0542,-0.0542,-0.0542,0.042,0.0483,0.0513,0.0661,0.0729,0.0872,0.0967,0.1139,0.1277,0.1505,0.1604,0.1638,0.1381,0.0172,-0.0603,-0.0807,-0.105,-0.1111,-0.1213,-0.1006,-0.0984,-0.0964,-0.1009,-0.1177,-0.1178,-0.1531,-0.1535,-0.1538]}],[{"header":{"parameterUnit":"m.s-1","parameterCategory":2,"la1":30.2991,"la2":30.254,"lo1":-89.0895,"lo2":-89.0444,"dy":0.0017,"dx":0.0017,"nx":28,"ny":28,"refTime":"2024-04-02T21:00:00:Z","depth":"2","parameterNumber":2,"parameterNumberName":"U-component_of_CURRENTS"},"data":[0,0,0,0,0,0,0,0,0,0,0,0,0,0,0,0,0,0,0,0,0,0,0,0,0,0,0,0,0,0,0,0,0,0,0,0,0,0,0,0,0,0,0,0,0,0,0,0,0,0,0,0,0,0,0,0,0,0,0.1076,0.1076,0,0.1112,0.1112,0.1113,0.1131,0.1131,0.1131,0.1131,0.115,0.115,0.1151,0,0,0,0,0,0,0,0,0,0,0,0,0,0.1019,0.102,0.1076,0.1076,0.1077,0.1112,0.1113,0.1113,0.1131,0.1131,0.1131,0.1132,0.115,0.115,0.1151,0,0,0,0,0,0,0,0,0,0,0,0,0,0.1047,0.102,0.1076,0.1091,0.1093,0.1112,0.1113,0.1113,0.1131,0.1131,0.1131,0.1132,0.115,0.115,0.1151,0.1151,0,0,0.1153,0.1153,0,0,0,0,0,0,0,0,0.1046,0.1049,0.1088,0.109,0.1092,0.1118,0.1099,0.1125,0.1131,0.1115,0.1131,0.1132,0.1138,0.114,0.1145,0.1152,0.1153,0.1153,0.1153,0.1153,0.1153,0,0,0,0,0,0,0,0.1044,0.1048,0.1089,0.1089,0.1091,0.1095,0.1099,0.1104,0.1124,0.1117,0.1118,0.1124,0.1139,0.1144,0.1145,0.1153,0.1153,0.1153,0.1154,0.1154,0.1189,0.119,0,0,0,0,0,0,0.1042,0.1046,0.1088,0.109,0.107,0.1096,0.1101,0.1109,0.1125,0.1128,0.1124,0.1125,0.1143,0.1145,0.1146,0.1172,0.1153,0.1154,0.1154,0.1189,0.1189,0.119,0,0,0,0,0,0,0.104,0.1045,0.1086,0.107,0.1075,0.1097,0.1106,0.1109,0.1122,0.1131,0.1133,0.1134,0.1143,0.1145,0.1161,0.1172,0.1154,0.1155,0.1188,0.1189,0.119,0.1207,0,0,0,0,0,0,0.1038,0.1044,0.1051,0.107,0.1076,0.1106,0.1106,0.111,0.1125,0.1127,0.114,0.1141,0.1144,0.116,0.1161,0.1172,0.1155,0.1187,0.1188,0.1189,0.1206,0.1209,0.1211,0,0,0,0,0,0.1036,0.1046,0.1051,0.1056,0.1084,0.1107,0.1111,0.1126,0.1126,0.1136,0.1144,0.1141,0.1168,0.1161,0.1163,0.1174,0.1187,0.1188,0.1189,0.1205,0.1208,0.1211,0,0,0,0,0,0,0.1027,0.105,0.1055,0.1072,0.1092,0.1111,0.1122,0.1129,0.1143,0.1145,0.1148,0.1151,0.1169,0.1169,0.1161,0.1188,0.1177,0.1179,0.1188,0.1191,0.1194,0.1205,0.1156,0,0,0,0,0,0.1027,0.104,0.1062,0.1077,0.1087,0.1104,0.1115,0.1126,0.114,0.1147,0.1154,0.1163,0.1174,0.1181,0.119,0.1203,0.1239,0.1212,0.1214,0.1216,0.1226,0.1279,0.1287,0.1194,0.1194,0.1194,0,0,0.1026,0.1042,0.1049,0.1076,0.1091,0.1109,0.1111,0.1132,0.1147,0.1146,0.1166,0.1172,0.118,0.1198,0.1205,0.12,0.1269,0.1218,0.122,0.1229,0.1281,0.129,0.1298,0.1195,0.1195,0.1195,0,0,0.1034,0.1047,0.1061,0.1079,0.1105,0.1117,0.1124,0.1146,0.1156,0.1176,0.1179,0.1195,0.1208,0.122,0.1226,0.1248,0.128,0.1248,0.127,0.132,0.1328,0.1336,0.1426,0.1441,0.1249,0.1249,0.1249,0,0.1031,0.1056,0.1069,0.109,0.1106,0.1121,0.1141,0.1153,0.1177,0.1191,0.1185,0.122,0.1221,0.125,0.1257,0.1254,0.1303,0.1256,0.1324,0.1333,0.134,0.143,0.1447,0.125,0.125,0.125,0.125,0,0.1052,0.1072,0.1083,0.1113,0.113,0.1152,0.1171,0.1189,0.1199,0.1214,0.1245,0.1251,0.1279,0.1274,0.1272,0.1322,0.1349,0.1322,0.1318,0.1351,0.1443,0.1461,0.1251,0.1251,0.1251,0.125,0,0,0.1046,0.1089,0.1094,0.1114,0.1146,0.1165,0.1189,0.1222,0.125,0.1262,0.1308,0.131,0.1323,0.1332,0.1332,0.1364,0.1462,0.1368,0.137,0.1461,0.1616,0.1644,0.1666,0.1448,0.1451,0.1452,0.1671,0,0.106,0.1099,0.1118,0.1156,0.1178,0.1201,0.1226,0.1255,0.128,0.1327,0.1338,0.1383,0.1342,0.1373,0.1394,0.1453,0.1503,0.1408,0.1567,0.1573,0.1596,0.1684,0.1539,0.1721,0.1688,0.1691,0.1693,0,0.1077,0.1103,0.1139,0.1187,0.12,0.1224,0.1278,0.1304,0.1361,0.1389,0.1426,0.1451,0.1516,0.147,0.1588,0.1534,0.158,0.1612,0.162,0.165,0.1632,0.1677,0.1754,0.1722,0.172,0.1718,0.1716,0,0.1072,0.112,0.115,0.1166,0.1218,0.1243,0.1273,0.1323,0.1365,0.1446,0.1506,0.1558,0.163,0.1673,0.1742,0.1683,0.1884,0.181,0.1881,0.1886,0.1796,0.1788,0.1894,0.1894,0.1893,0.1892,0.1892,0,0.1081,0.1107,0.1153,0.1172,0.1214,0.1251,0.1307,0.1345,0.1428,0.1498,0.1544,0.163,0.1684,0.1794,0.1814,0.1937,0.1954,0.1924,0.1948,0.1802,0.1792,0.1799,0.1785,0.1901,0.1899,0.1897,0.1896,0,0.1069,0.11,0.1136,0.1192,0.1212,0.1242,0.1326,0.137,0.1458,0.1562,0.1607,0.1739,0.1893,0.196,0.2081,0.2065,0.2152,0.218,0.2033,0.2034,0.2103,0.2087,0.2292,0.2295,0.2297,0.2299,0.2301,0,0.1066,0.1084,0.1138,0.1161,0.1188,0.1242,0.1279,0.1368,0.1432,0.1624,0.1686,0.1881,0.1997,0.2216,0.2242,0.2339,0.2294,0.2247,0.2082,0.2144,0.2146,0.2126,0.2108,0.1989,0.1988,0.1987,0.1987,0,0.1054,0.1073,0.1102,0.1145,0.1185,0.1234,0.1308,0.1365,0.149,0.1608,0.1796,0.1916,0.2133,0.2189,0.2319,0.232,0.2214,0.2236,0.2366,0.1901,0.1873,0.187,0.1859,0.198,0.198,0.1981,0.1981,0.1982,0.1038,0.1052,0.1089,0.113,0.1173,0.1225,0.1263,0.1359,0.1475,0.1642,0.1797,0.1947,0.2044,0.218,0.2167,0.2158,0.2271,0.2158,0.2154,0.2153,0.2069,0.2045,0.2172,0.2174,0.2175,0.2177,0.2178,0,0.1015,0.1042,0.1075,0.1123,0.1156,0.1194,0.1281,0.132,0.1435,0.1614,0.1772,0.1759,0.1862,0.1945,0.1936,0.1966,0.1856,0.1883,0.1721,0.1735,0.1745,0.163,0.1623,0.162,0.1618,0.1615,0,0,0.1007,0.1028,0.1049,0.1094,0.1132,0.1171,0.1212,0.1276,0.1394,0.1494,0.1593,0.1805,0.1933,0.1751,0.1755,0.1695,0.1678,0.163,0.2093,0.1919,0.1925,0.1946,0.1794,0,0,0,0,0]},{"header":{"parameterUnit":"m.s-1","parameterCategory":2,"la1":30.2991,"la2":30.254,"lo1":-89.0895,"lo2":-89.0444,"dy":0.0017,"dx":0.0017,"nx":28,"ny":28,"refTime":"2024-04-02T21:00:00:Z","depth":"2","parameterNumber":3,"parameterNumberName":"V-component_of_CURRENTS"},"data":[0,0,0,0,0,0,0,0,0,0,0,0,0,0,0,0,0,0,0,0,0,0,0,0,0,0,0,0,0,0,0,0,0,0,0,0,0,0,0,0,0,0,0,0,0,0,0,0,0,0,0,0,0,0,0,0,0,0,-0.0111,-0.0111,0,-0.0158,-0.0159,-0.0159,-0.0188,-0.0188,-0.0188,-0.0188,-0.0253,-0.0255,-0.0257,0,0,0,0,0,0,0,0,0,0,0,0,0,-0.007,-0.0071,-0.0111,-0.0111,-0.0112,-0.0158,-0.0159,-0.0159,-0.0188,-0.0188,-0.0188,-0.0188,-0.0253,-0.0255,-0.0257,0,0,0,0,0,0,0,0,0,0,0,0,0,-0.01,-0.0071,-0.011,-0.0131,-0.0133,-0.0158,-0.0159,-0.016,-0.0188,-0.0188,-0.0188,-0.0188,-0.0252,-0.0254,-0.0257,-0.0269,0,0,-0.0264,-0.0266,0,0,0,0,0,0,0,0,-0.0098,-0.0101,-0.0128,-0.013,-0.0132,-0.0167,-0.0168,-0.0197,-0.0188,-0.0168,-0.0188,-0.0188,-0.0226,-0.023,-0.0239,-0.0272,-0.0275,-0.0265,-0.0266,-0.0267,-0.0268,0,0,0,0,0,0,0,-0.0096,-0.01,-0.013,-0.0128,-0.0131,-0.0147,-0.0151,-0.0174,-0.0196,-0.0169,-0.0171,-0.0176,-0.0227,-0.0237,-0.0241,-0.0276,-0.0265,-0.0267,-0.0268,-0.0269,-0.0329,-0.0329,0,0,0,0,0,0,-0.0088,-0.0098,-0.0128,-0.0131,-0.0115,-0.0147,-0.0152,-0.0156,-0.0195,-0.0201,-0.0176,-0.0177,-0.0232,-0.0238,-0.0243,-0.0264,-0.0267,-0.027,-0.0271,-0.0329,-0.0329,-0.0329,0,0,0,0,0,0,-0.0087,-0.009,-0.0126,-0.0115,-0.0121,-0.0148,-0.0152,-0.0157,-0.0166,-0.02,-0.0206,-0.0179,-0.0233,-0.024,-0.0266,-0.0267,-0.0271,-0.0273,-0.0329,-0.0329,-0.0329,-0.0304,0,0,0,0,0,0,-0.0086,-0.009,-0.0091,-0.0115,-0.0121,-0.0137,-0.0152,-0.0158,-0.0168,-0.017,-0.0205,-0.0212,-0.0233,-0.0262,-0.0268,-0.0271,-0.0275,-0.0329,-0.0329,-0.0329,-0.0305,-0.0303,-0.0302,0,0,0,0,0,-0.0084,-0.0082,-0.009,-0.0094,-0.0121,-0.0137,-0.0142,-0.0162,-0.0168,-0.017,-0.0197,-0.021,-0.0268,-0.0264,-0.0271,-0.0274,-0.0329,-0.0329,-0.0329,-0.0305,-0.0304,-0.0302,0,0,0,0,0,0,-0.0064,-0.0085,-0.0095,-0.0099,-0.0116,-0.0142,-0.0146,-0.0158,-0.0181,-0.0183,-0.0214,-0.0223,-0.0246,-0.0263,-0.0258,-0.0292,-0.0299,-0.0301,-0.0279,-0.0277,-0.0276,-0.0269,-0.0277,0,0,0,0,0,-0.006,-0.0065,-0.0087,-0.0091,-0.0097,-0.0121,-0.013,-0.0142,-0.0164,-0.0174,-0.0199,-0.0226,-0.0253,-0.0266,-0.0292,-0.031,-0.0318,-0.0316,-0.0315,-0.0313,-0.0313,-0.0325,-0.0324,-0.033,-0.033,-0.033,0,0,-0.0054,-0.0066,-0.007,-0.0088,-0.0102,-0.011,-0.0126,-0.0137,-0.0146,-0.0178,-0.0198,-0.0224,-0.0257,-0.028,-0.0291,-0.0294,-0.0315,-0.0314,-0.0312,-0.0313,-0.0325,-0.0324,-0.0324,-0.033,-0.033,-0.033,0,0,-0.0042,-0.0054,-0.0054,-0.0065,-0.0083,-0.0099,-0.01,-0.0123,-0.0137,-0.0159,-0.0185,-0.0211,-0.0248,-0.0274,-0.0292,-0.0298,-0.0308,-0.0303,-0.0291,-0.0302,-0.0302,-0.0301,-0.0302,-0.0302,-0.0301,-0.0301,-0.0301,0,-0.0032,-0.0037,-0.0056,-0.0058,-0.0066,-0.0092,-0.0092,-0.0111,-0.0141,-0.0151,-0.0161,-0.0217,-0.0247,-0.0276,-0.0282,-0.0296,-0.0297,-0.0293,-0.03,-0.03,-0.03,-0.0301,-0.0301,-0.03,-0.03,-0.03,-0.03,0,-0.0022,-0.0026,-0.0025,-0.0039,-0.005,-0.0054,-0.008,-0.0093,-0.0112,-0.0132,-0.0161,-0.0201,-0.0231,-0.0247,-0.0271,-0.0287,-0.0286,-0.0296,-0.0301,-0.0297,-0.0299,-0.03,-0.0298,-0.0298,-0.0299,-0.0299,0,0,0.0001,-0.0014,-0.0014,-0.0014,-0.0039,-0.0043,-0.0062,-0.0083,-0.0082,-0.0123,-0.0125,-0.0188,-0.0202,-0.0224,-0.0252,-0.0269,-0.0276,-0.0281,-0.0282,-0.0276,-0.0289,-0.0317,-0.0321,-0.0283,-0.0283,-0.0284,-0.0286,0,0.0016,0.0022,0.0003,0.0006,0.0009,-0.002,-0.0031,-0.0054,-0.0073,-0.0079,-0.0129,-0.0139,-0.0195,-0.0194,-0.0228,-0.0257,-0.0278,-0.0274,-0.0298,-0.0298,-0.032,-0.0323,-0.0311,-0.0315,-0.0287,-0.0287,-0.0287,0,0.0031,0.0035,0.0043,0.0037,0.0036,0.0031,0.002,0.0011,-0.0014,-0.0024,-0.0054,-0.008,-0.0119,-0.0153,-0.022,-0.0211,-0.0252,-0.028,-0.0281,-0.0319,-0.0329,-0.0317,-0.0317,-0.0288,-0.0288,-0.0288,-0.0288,0,0.0063,0.0061,0.0071,0.0068,0.0057,0.0055,0.0049,0.0028,0.0045,0.0027,0.0053,-0.002,-0.0013,-0.0095,-0.0171,-0.0187,-0.0229,-0.0257,-0.0324,-0.0326,-0.0327,-0.0329,-0.0304,-0.0304,-0.0304,-0.0304,-0.0304,0,0.0087,0.0096,0.009,0.0098,0.0117,0.0095,0.0118,0.0106,0.012,0.0163,0.0095,0.0128,0.0006,-0.0035,-0.0136,-0.0229,-0.0205,-0.0323,-0.0333,-0.0318,-0.0319,-0.0309,-0.0309,-0.0304,-0.0304,-0.0304,-0.0304,0,0.0119,0.0112,0.013,0.013,0.0134,0.0152,0.0181,0.0208,0.0215,0.0279,0.0289,0.0259,0.02,0.0071,-0.0037,-0.0156,-0.0257,-0.0294,-0.0267,-0.0275,-0.0356,-0.0355,-0.0378,-0.0379,-0.038,-0.0381,-0.0381,0,0.0135,0.0146,0.0165,0.0189,0.0192,0.0218,0.0244,0.0254,0.0305,0.0368,0.0417,0.0387,0.037,0.0184,-0.0025,-0.0212,-0.0233,-0.0325,-0.0377,-0.0359,-0.0365,-0.0363,-0.0361,-0.0358,-0.0359,-0.0359,-0.0359,0,0.0171,0.0174,0.0195,0.0248,0.028,0.0326,0.0375,0.0433,0.0472,0.0537,0.0626,0.062,0.044,0.0251,-0.0023,-0.0162,-0.0307,-0.034,-0.0312,-0.0351,-0.0344,-0.0349,-0.0347,-0.0362,-0.0362,-0.0362,-0.0362,-0.0362,0.0201,0.0227,0.026,0.0311,0.0361,0.0442,0.0508,0.0576,0.0676,0.0796,0.0777,0.0795,0.0542,0.0207,-0.0049,-0.0314,-0.0316,-0.0413,-0.041,-0.0407,-0.0414,-0.041,-0.0441,-0.0442,-0.0442,-0.0442,-0.0442,0,0.024,0.0274,0.0325,0.0397,0.0474,0.049,0.0606,0.0689,0.0826,0.0915,0.0982,0.0786,0.0543,0.0275,-0.0124,-0.0388,-0.0411,-0.0461,-0.0427,-0.0423,-0.0419,-0.0426,-0.0457,-0.0457,-0.0458,-0.0458,0,0,0.0264,0.032,0.0348,0.0482,0.055,0.0678,0.0761,0.0882,0.0978,0.107,0.1095,0.1036,0.0675,0.0391,0.0023,-0.0198,-0.0246,-0.025,-0.0216,-0.0129,-0.0122,-0.0377,-0.0382,0,0,0,0,0]}],[{"header":{"parameterUnit":"m.s-1","parameterCategory":2,"la1":30.2991,"la2":30.254,"lo1":-89.0895,"lo2":-89.0444,"dy":0.0017,"dx":0.0017,"nx":28,"ny":28,"refTime":"2024-04-02T21:00:00:Z","depth":"4","parameterNumber":2,"parameterNumberName":"U-component_of_CURRENTS"},"data":[0,0,0,0,0,0,0,0,0,0,0,0,0,0,0,0,0,0,0,0,0,0,0,0,0,0,0,0,0,0,0,0,0,0,0,0,0,0,0,0,0,0,0,0,0,0,0,0,0,0,0,0,0,0,0,0,0,0,0.068,0.068,0,0.0708,0.0708,0.0709,0.0737,0.0737,0.0738,0.0738,0.0761,0.0761,0.0761,0,0,0,0,0,0,0,0,0,0,0,0,0,0.0627,0.0628,0.068,0.068,0.0681,0.0708,0.0708,0.0709,0.0736,0.0737,0.0738,0.0738,0.0761,0.0761,0.0761,0,0,0,0,0,0,0,0,0,0,0,0,0,0.065,0.0628,0.068,0.07,0.0702,0.0708,0.0708,0.0709,0.0736,0.0737,0.0738,0.0739,0.0761,0.0761,0.0761,0.0745,0,0,0.0761,0.0761,0,0,0,0,0,0,0,0,0.0649,0.0652,0.0696,0.0698,0.0701,0.0722,0.0698,0.0721,0.0736,0.0721,0.0738,0.0739,0.0748,0.0749,0.075,0.0746,0.0747,0.0761,0.0761,0.0761,0.0761,0,0,0,0,0,0,0,0.0647,0.0651,0.0689,0.0697,0.07,0.0699,0.0704,0.0702,0.0728,0.0722,0.0725,0.0731,0.0749,0.0749,0.075,0.0747,0.0761,0.0761,0.0761,0.0761,0.0806,0.0807,0,0,0,0,0,0,0.0648,0.0649,0.0688,0.069,0.0679,0.07,0.0705,0.0712,0.0728,0.0732,0.073,0.0732,0.0749,0.075,0.0751,0.08,0.0761,0.0761,0.0761,0.0805,0.0806,0.0807,0,0,0,0,0,0,0.0647,0.0652,0.0687,0.0672,0.0677,0.07,0.0709,0.0713,0.0733,0.0734,0.0738,0.0749,0.0749,0.0751,0.0768,0.0798,0.0761,0.0761,0.0803,0.0805,0.0806,0.0854,0,0,0,0,0,0,0.0645,0.0651,0.0662,0.0672,0.0678,0.0702,0.0708,0.0713,0.0735,0.0738,0.0751,0.0753,0.075,0.0768,0.0768,0.0798,0.0762,0.0802,0.0804,0.0806,0.0851,0.0857,0.0862,0,0,0,0,0,0.0643,0.0653,0.0662,0.0668,0.0691,0.0703,0.0705,0.0723,0.0735,0.0744,0.0757,0.0754,0.0782,0.0769,0.0769,0.0799,0.0801,0.0803,0.0806,0.0848,0.0855,0.0862,0,0,0,0,0,0,0.0636,0.0657,0.0668,0.0684,0.0699,0.0708,0.0721,0.0732,0.0749,0.0758,0.0759,0.0762,0.0787,0.0785,0.0771,0.0819,0.0794,0.0797,0.0826,0.0833,0.0839,0.0855,0.0762,0,0,0,0,0,0.0639,0.0655,0.0671,0.0686,0.0695,0.0711,0.0721,0.0734,0.0748,0.0757,0.0767,0.0781,0.0793,0.0808,0.0809,0.0834,0.0843,0.0856,0.0862,0.0866,0.088,0.0911,0.0921,0.0815,0.0815,0.0815,0,0,0.064,0.0655,0.0664,0.0686,0.0699,0.0712,0.072,0.0741,0.0758,0.0755,0.0785,0.0793,0.08,0.0827,0.084,0.0835,0.0903,0.087,0.0874,0.0885,0.0915,0.0925,0.0934,0.0817,0.0817,0.0816,0,0,0.0643,0.0664,0.0676,0.0688,0.0714,0.0724,0.0734,0.0755,0.0775,0.08,0.0806,0.0832,0.085,0.0866,0.0875,0.0912,0.0922,0.0923,0.0976,0.1005,0.1014,0.1022,0.1054,0.1064,0.0937,0.0937,0.0937,0,0.0643,0.0661,0.068,0.0692,0.0711,0.0731,0.0748,0.0765,0.0791,0.0825,0.0817,0.0871,0.0868,0.0917,0.0935,0.0925,0.0951,0.0948,0.1013,0.1021,0.1029,0.1059,0.107,0.0939,0.0939,0.0939,0.0938,0,0.0647,0.0668,0.0676,0.0702,0.0724,0.0741,0.0769,0.08,0.083,0.086,0.0918,0.0917,0.096,0.0963,0.0962,0.1026,0.103,0.1007,0.0996,0.1042,0.1071,0.1081,0.0943,0.0942,0.0941,0.0941,0,0,0.063,0.0671,0.0676,0.0701,0.0734,0.0756,0.0795,0.085,0.0894,0.093,0.0994,0.1018,0.1045,0.1057,0.1061,0.1092,0.1158,0.1088,0.1089,0.112,0.1244,0.1183,0.1189,0.1158,0.116,0.1162,0.1244,0,0.0629,0.0658,0.0682,0.0722,0.0744,0.0787,0.0825,0.0884,0.0929,0.0991,0.1034,0.108,0.1073,0.1099,0.1134,0.1144,0.1189,0.1138,0.1194,0.1196,0.1137,0.12,0.1168,0.1252,0.1255,0.1256,0.1258,0,0.0619,0.0648,0.0685,0.0755,0.0771,0.0807,0.0896,0.0928,0.1019,0.106,0.113,0.1157,0.1223,0.1192,0.1265,0.1242,0.1261,0.1264,0.1267,0.1203,0.1155,0.1195,0.1277,0.1275,0.1274,0.1272,0.1271,0,0.0601,0.0653,0.0691,0.0709,0.0782,0.0835,0.0885,0.097,0.1013,0.111,0.1157,0.1234,0.1275,0.1311,0.1339,0.1313,0.1412,0.1363,0.1332,0.1328,0.1335,0.1325,0.1426,0.1426,0.1426,0.1426,0.1426,0,0.0582,0.0616,0.0696,0.0717,0.0784,0.0847,0.092,0.0979,0.1068,0.1132,0.1197,0.1252,0.1311,0.1372,0.1381,0.1402,0.1451,0.1362,0.1352,0.1353,0.1344,0.1343,0.1332,0.1429,0.1428,0.1428,0.1427,0,0.0547,0.059,0.064,0.0737,0.0772,0.0826,0.0931,0.098,0.1068,0.1149,0.1186,0.1294,0.137,0.1422,0.1484,0.1448,0.1467,0.1466,0.1492,0.1478,0.1352,0.1343,0.1424,0.1423,0.1422,0.1421,0.142,0,0.0529,0.0549,0.0643,0.0679,0.073,0.0813,0.0865,0.0968,0.102,0.1165,0.1205,0.1323,0.1385,0.1438,0.1481,0.1511,0.1492,0.1491,0.1397,0.1373,0.1356,0.1348,0.134,0.1418,0.1418,0.1418,0.1418,0,0.0497,0.0533,0.0575,0.0644,0.0712,0.0772,0.0868,0.09,0.1022,0.1104,0.1212,0.127,0.1365,0.1412,0.1462,0.147,0.1476,0.1479,0.148,0.1391,0.1367,0.1349,0.1343,0.1414,0.1414,0.1415,0.1415,0,0.0474,0.0489,0.0546,0.0607,0.0677,0.0737,0.0786,0.0879,0.0945,0.1108,0.1145,0.127,0.1368,0.1394,0.1434,0.1447,0.1406,0.1342,0.1349,0.1353,0.1288,0.1245,0.1267,0,0,0,0,0,0.0449,0.0463,0.051,0.0576,0.0643,0.0694,0.0791,0.0843,0.0958,0.1013,0.1082,0.117,0.1249,0.1308,0.1305,0.1378,0.1395,0.1366,0.132,0.1393,0.1397,0.1325,0,0,0,0,0,0,0.0432,0.0466,0.049,0.0545,0.0584,0.0661,0.0722,0.0801,0.0841,0.0959,0.1012,0.1099,0.1189,0.1245,0.1284,0.1299,0.1247,0.1438,0.1435,0.139,0.1394,0.1398,0.1325,0,0,0,0,0]},{"header":{"parameterUnit":"m.s-1","parameterCategory":2,"la1":30.2991,"la2":30.254,"lo1":-89.0895,"lo2":-89.0444,"dy":0.0017,"dx":0.0017,"nx":28,"ny":28,"refTime":"2024-04-02T21:00:00:Z","depth":"4","parameterNumber":3,"parameterNumberName":"V-component_of_CURRENTS"},"data":[0,0,0,0,0,0,0,0,0,0,0,0,0,0,0,0,0,0,0,0,0,0,0,0,0,0,0,0,0,0,0,0,0,0,0,0,0,0,0,0,0,0,0,0,0,0,0,0,0,0,0,0,0,0,0,0,0,0,-0.0143,-0.0143,0,-0.0184,-0.0185,-0.0185,-0.0222,-0.0222,-0.0223,-0.0223,-0.0294,-0.0296,-0.0297,0,0,0,0,0,0,0,0,0,0,0,0,0,-0.0122,-0.0123,-0.0143,-0.0143,-0.0144,-0.0184,-0.0185,-0.0186,-0.0222,-0.0222,-0.0223,-0.0223,-0.0294,-0.0295,-0.0297,0,0,0,0,0,0,0,0,0,0,0,0,0,-0.0145,-0.0123,-0.0143,-0.0166,-0.0169,-0.0184,-0.0185,-0.0186,-0.0222,-0.0222,-0.0223,-0.0223,-0.0293,-0.0295,-0.0298,-0.0302,0,0,-0.0305,-0.0306,0,0,0,0,0,0,0,0,-0.0144,-0.0146,-0.0162,-0.0165,-0.0167,-0.0198,-0.0204,-0.0226,-0.0222,-0.0202,-0.0223,-0.0224,-0.0264,-0.0269,-0.0276,-0.0305,-0.0308,-0.0305,-0.0306,-0.0307,-0.0308,0,0,0,0,0,0,0,-0.0142,-0.0144,-0.016,-0.0163,-0.0166,-0.0184,-0.0188,-0.0208,-0.0231,-0.0204,-0.0207,-0.021,-0.0266,-0.0273,-0.0278,-0.0309,-0.0305,-0.0307,-0.0308,-0.0309,-0.0363,-0.0363,0,0,0,0,0,0,-0.0133,-0.0143,-0.0159,-0.0161,-0.0156,-0.0184,-0.0188,-0.0188,-0.023,-0.0236,-0.0209,-0.0211,-0.0269,-0.0275,-0.0281,-0.0293,-0.0307,-0.031,-0.0311,-0.0363,-0.0363,-0.0363,0,0,0,0,0,0,-0.0133,-0.0134,-0.0157,-0.0153,-0.0157,-0.0183,-0.0184,-0.0189,-0.0202,-0.0234,-0.0241,-0.0218,-0.027,-0.0277,-0.0302,-0.0296,-0.0311,-0.0313,-0.0363,-0.0363,-0.0363,-0.0316,0,0,0,0,0,0,-0.0132,-0.0134,-0.0134,-0.0152,-0.0157,-0.0163,-0.0183,-0.0189,-0.0202,-0.0206,-0.0243,-0.025,-0.0271,-0.0298,-0.0304,-0.03,-0.0315,-0.0363,-0.0363,-0.0363,-0.0317,-0.0314,-0.0312,0,0,0,0,0,-0.0131,-0.0124,-0.0134,-0.0136,-0.0155,-0.0162,-0.0166,-0.0188,-0.0202,-0.0203,-0.0232,-0.0249,-0.0303,-0.03,-0.0307,-0.0303,-0.0363,-0.0363,-0.0363,-0.0319,-0.0315,-0.0312,0,0,0,0,0,0,-0.0115,-0.0128,-0.0139,-0.0137,-0.0148,-0.0168,-0.0172,-0.0187,-0.021,-0.0217,-0.025,-0.0258,-0.0277,-0.0298,-0.0294,-0.032,-0.0336,-0.0337,-0.0299,-0.0296,-0.0293,-0.0285,-0.0317,0,0,0,0,0,-0.0111,-0.0111,-0.0126,-0.0125,-0.013,-0.0152,-0.016,-0.0173,-0.0194,-0.0205,-0.0231,-0.026,-0.0281,-0.0295,-0.0317,-0.0331,-0.0353,-0.0335,-0.0332,-0.0329,-0.0328,-0.0342,-0.0339,-0.0363,-0.0363,-0.0363,0,0,-0.0104,-0.0112,-0.0113,-0.0123,-0.0135,-0.0131,-0.0159,-0.0167,-0.0163,-0.0209,-0.0218,-0.025,-0.0283,-0.0297,-0.0308,-0.0316,-0.0337,-0.0329,-0.0326,-0.0327,-0.0341,-0.0339,-0.0337,-0.0363,-0.0363,-0.0363,0,0,-0.0087,-0.0099,-0.0092,-0.0096,-0.011,-0.012,-0.012,-0.0141,-0.0152,-0.0167,-0.0197,-0.0221,-0.026,-0.0275,-0.0289,-0.0284,-0.032,-0.0299,-0.0279,-0.0292,-0.029,-0.0288,-0.0323,-0.0325,-0.0299,-0.0299,-0.0299,0,-0.0079,-0.0072,-0.0091,-0.0083,-0.0082,-0.0111,-0.0099,-0.0109,-0.0135,-0.0149,-0.0165,-0.022,-0.0243,-0.0258,-0.0261,-0.0274,-0.0303,-0.0287,-0.0287,-0.0285,-0.0284,-0.0321,-0.0323,-0.0296,-0.0297,-0.0297,-0.0297,0,-0.0054,-0.0048,-0.0044,-0.0041,-0.0042,-0.0038,-0.005,-0.0058,-0.008,-0.0104,-0.0132,-0.0166,-0.0201,-0.0211,-0.0237,-0.0246,-0.0276,-0.0278,-0.0291,-0.0279,-0.0318,-0.0322,-0.0293,-0.0294,-0.0295,-0.0295,0,0,-0.0038,-0.0027,-0.0027,-0.0019,-0.002,-0.002,-0.001,-0.0021,-0.0027,-0.006,-0.0074,-0.0111,-0.0149,-0.0167,-0.0199,-0.0213,-0.0232,-0.0248,-0.025,-0.0276,-0.0286,-0.0288,-0.0292,-0.024,-0.024,-0.024,-0.032,0,-0.0015,0.0011,0.0011,0.0035,0.0047,0.0033,0.0041,0.0025,0.0002,-0.0019,-0.0062,-0.0089,-0.0125,-0.0146,-0.0165,-0.0219,-0.0239,-0.0212,-0.0301,-0.0304,-0.03,-0.0294,-0.024,-0.0323,-0.0324,-0.0324,-0.0325,0,0.0006,0.0022,0.0051,0.0067,0.0069,0.0076,0.0074,0.0079,0.0046,0.0024,-0.0012,-0.0054,-0.0092,-0.0113,-0.0192,-0.0181,-0.0231,-0.0267,-0.0271,-0.029,-0.0311,-0.0337,-0.0332,-0.0331,-0.033,-0.033,-0.033,0,0.0017,0.0046,0.0069,0.0076,0.0092,0.0093,0.0096,0.0077,0.0081,0.0049,0.0034,-0.0021,-0.0054,-0.0113,-0.0205,-0.0202,-0.0294,-0.0293,-0.0341,-0.0343,-0.0339,-0.034,-0.0335,-0.0335,-0.0334,-0.0334,-0.0334,0,0.0039,0.0054,0.0072,0.0082,0.0103,0.0103,0.0113,0.0108,0.01,0.0101,0.005,0.004,-0.0056,-0.0124,-0.0199,-0.0292,-0.0291,-0.034,-0.0358,-0.0321,-0.0318,-0.0343,-0.0343,-0.0337,-0.0337,-0.0336,-0.0336,0,0.0042,0.0057,0.0082,0.0101,0.0107,0.0115,0.0134,0.0141,0.013,0.0136,0.0128,0.007,-0.0017,-0.0121,-0.0227,-0.0283,-0.0365,-0.0395,-0.0369,-0.0385,-0.041,-0.0407,-0.045,-0.0451,-0.0451,-0.0451,-0.0452,0,0.0047,0.006,0.0091,0.0108,0.0115,0.0132,0.0146,0.0152,0.0167,0.016,0.0162,0.0084,0.0033,-0.0117,-0.0232,-0.0379,-0.0391,-0.0441,-0.0404,-0.0406,-0.0419,-0.0415,-0.0411,-0.0453,-0.0453,-0.0453,-0.0453,0,0.0053,0.0057,0.0077,0.0117,0.0135,0.0173,0.0193,0.021,0.0222,0.0209,0.0208,0.0133,0.0028,-0.0097,-0.0226,-0.0324,-0.0409,-0.0446,-0.0445,-0.041,-0.041,-0.0421,-0.0417,-0.0455,-0.0454,-0.0454,-0.0454,0,0.0047,0.0058,0.0084,0.0119,0.0156,0.0204,0.0218,0.0242,0.026,0.0258,0.0254,0.0154,0.009,-0.0071,-0.0183,-0.0291,-0.0306,-0.0322,-0.0327,-0.0327,-0.0266,-0.0245,-0.0254,0,0,0,0,0,0.0039,0.0054,0.0089,0.0132,0.0176,0.0206,0.0247,0.026,0.0269,0.0285,0.0279,0.0195,0.0044,-0.0031,-0.0135,-0.0212,-0.0348,-0.0339,-0.0374,-0.0464,-0.0462,-0.0411,0,0,0,0,0,0,0.0031,0.0055,0.0082,0.0141,0.018,0.0234,0.0269,0.0282,0.0293,0.0291,0.0213,0.0176,0.0019,0.0107,-0.0134,-0.0171,-0.0205,-0.0418,-0.0419,-0.0465,-0.0463,-0.0462,-0.0408,0,0,0,0,0]}]]